2015 FD134

Initial reported observation by Catalina Sky Survey on 2015-03-21.
(Discoverer will be defined when the object is numbered. See this note on how discoverers are determined.)

Orbit

Orbit type: Amor
Near-Earth Object

Note: WebGL enabled browser required.

epoch2021-07-05.0
epoch JD2459400.5
perihelion date2022-11-19.67251
perihelion JD2459903.17251
argument of perihelion (°)23.18475
ascending node (°)217.56654
inclination (°)2.08976
eccentricity0.5102437
perihelion distance (AU)1.1783023
Tisserand w.r.t. Jupiter3.3
ΔV w.r.t. Earth (km/sec)6.8
semimajor axis (AU)2.4058952
mean anomaly (°)227.23796
mean daily motion (°/day)0.26411240
aphelion distance (AU)3.633
period (years)3.73
P-vector [x]-0.48876116
P-vector [y]-0.80602972
P-vector [z]-0.33380925
Q-vector [x]0.87213431
Q-vector [y]-0.46117209
Q-vector [z]-0.16340760
absolute magnitude20.4
phase slope0.15
uncertainty0
referenceMPO 640632
observations used133
oppositions2
arc length (days)1679
first opposition used2015
last opposition used2019
residual rms (arc-secs)0.35
perturbers coarse indicatorM-v
perturbers precise indicator0038h
first observation date used2015-01-23.0
last observation date used2019-08-29.0
computer nameVeres
JD of orbit computation2458158.036970
perihelion JD uncertainty (days)2.2035E-02
argument of perihelion uncertainty (°)7.7691E-05
ascending node uncertainty (°)7.2253E-05
inclination uncertainty (°)1.2194E-05
eccentricity uncertainty 4.8322E-06
perihelion distance uncertainty (AU)1.0375E-06
Minimum Orbit Intersection Distances (in AU)
for orbit epoch: 2459400.5, reference: E2021-M80
Mercury0.71612
Venus0.45338
Earth0.16676
Mars0.09306
Jupiter1.38624
Saturn5.49688
Uranus15.6677
Neptune26.3419

Observations

140 total observations over interval: 2015 01 23.491804 – 2019 08 29.492547
These data are available for download (format description).

